Observations for Trim Market St
| Time | AQI | Temp °C | Hum % | Pres Pa | CO μg/m³ | H₂S μg/m³ | NO μg/m³ | NO₂ μg/m³ | O₃ μg/m³ | SO₂ μg/m³ | PM1 μg/m³ | PM2.5 μg/m³ | PM10 μg/m³ |
|---|---|---|---|---|---|---|---|---|---|---|---|---|---|
| Friday 21 August 2026 | |||||||||||||
| 11:13 | 2 | 22.3 | 46 | 64,423 | 0 | 0 | 1.23 | 11.9 | 81.93 | 0 | 0.71 | 3.68 | 4.05 |
| 11:10 | 2 | 22.1 | 46 | 64,356 | 0.09 | 0 | 1.4 | 18.39 | 69.62 | 0 | 0 | 2.1 | 2.31 |
| 11:06 | 2 | 21.9 | 46 | 64,060 | 0.17 | 0 | 2.06 | 12.63 | 65.97 | 0 | 0 | 2.09 | 2.3 |
| 11:00 | 2 | 21.6 | 46 | 63,701 | 0.07 | 0 | 1.43 | 29.88 | 86.21 | 0 | 0 | 2.1 | 2.31 |
| 10:58 | 2 | 21.6 | 46 | 63,671 | 0.13 | 0.64 | 1.64 | 35.36 | 78.04 | 0 | 0 | 2.11 | 2.13 |
| 10:54 | 2 | 21.6 | 46 | 63,679 | 0 | 3.01 | 1.7 | 30.3 | 135.8 | 0 | 0 | 2.12 | 2.12 |
| 10:53 | 2 | 21.7 | 46 | 63,805 | 0 | 1.45 | 1.69 | 12.95 | 119.14 | 0 | 0 | 2.64 | 3.67 |
| 10:52 | 2 | 21.7 | 46 | 63,878 | 0 | 0.77 | 1.85 | 16.56 | 113.59 | 0 | 0 | 2.12 | 2.12 |
| 10:51 | 2 | 21.8 | 46 | 63,977 | 0 | 0 | 1.91 | 11.04 | 84.75 | 0 | 0 | 2.12 | 2.33 |
| 10:50 | 2 | 21.8 | 46 | 64,005 | 0.08 | 1.93 | 2.17 | 22.24 | 73.23 | 0 | 0 | 2.12 | 2.13 |
| 10:49 | 2 | 21.8 | 46 | 63,997 | 0.26 | 1.37 | 5.65 | 15.49 | 61.69 | 0 | 0 | 2.11 | 2.32 |
| 10:48 | 2 | 21.8 | 46 | 63,950 | 0.35 | 9 | 4.96 | 50.46 | 85.46 | 0 | 0 | 2.12 | 2.13 |
| 10:47 | 2 | 21.8 | 46 | 63,954 | 1.6 | 16.43 | 2.02 | 41.67 | 57.38 | 0 | 0 | 2.64 | 2.9 |
| 10:46 | 2 | 21.8 | 46 | 63,962 | 4.21 | 12.86 | 1.89 | 44.89 | 57.78 | 0 | 0 | 2.12 | 2.33 |
| 10:45 | 2 | 21.8 | 46 | 63,973 | 0.16 | 0.24 | 1.82 | 27.78 | 60.03 | 0 | 0 | 2.12 | 2.9 |
| 10:44 | 2 | 21.8 | 46 | 63,948 | 0 | 2.69 | 1.81 | 38.88 | 96.83 | 0 | 0 | 2.65 | 3.66 |
| 10:43 | 2 | 21.8 | 45 | 63,948 | 0.12 | 3.62 | 1.7 | 55.34 | 90.23 | 0 | 0 | 3.18 | 4.43 |
| 10:42 | 2 | 21.8 | 45 | 63,985 | 0.17 | 6.39 | 1.82 | 48.56 | 72.33 | 0 | 1.43 | 4.22 | 5.2 |
| 10:41 | 2 | 21.8 | 45 | 64,035 | 0 | 6.84 | 1.73 | 39.37 | 132.1 | 0 | 0.71 | 3.19 | 3.51 |
| 10:39 | 2 | 21.9 | 45 | 64,170 | 0 | 0 | 1.23 | 14.6 | 113.96 | 0 | 0 | 2.15 | 2.37 |